Starlink 5275

operational
NORAD ID: 55398 Int'l Des: 2023-014 Owner: SPXS Country: US Constellation: starlink
LEOCIRCULAR

Über Starlink 5275

Beschreibung wird geladen...

Live-Position

3D-Globus wird geladen...

Nächste Überflüge

Höhenverlauf

Altitude vs Time

uPlot chart will show altitude changes over time

Zweizeiliger Elementsatz

1 55398U 23014H 25347.55129232 -.00002122 00000-0 -17009-3 0 9999
2 55398 69.9993 281.6013 0002311 271.0616 89.0279 14.98338579159151
Epoch: 13. Dez. 2025 • Age: 23 hours

Aktueller Status

Höhe 574.1 km
Geschwindigkeit 7.57 km/s
Subsatellitenpunkt 4.87°N, 172.63°W
Startdatum 31. Jan. 2023
Alter 2.8 years
Typ internet

Technische Details

Klassifizierung Payload
Masse 305.00 kg
Trockenmasse 290.00 kg
Gesamtmasse 305.00 kg
Länge 0.20 m
Durchmesser 2.80 m
Spannweite 9.00 m
Form Box + pan
Hersteller SPXS
Bus-Typ Starlink
Phasenstatus In Orbit
Besitzer/Staat SPXS/US

Große Konstellationen

Loading constellations...